Weather History for Tahlequah, OK

Change the Weather History Date:

Sunday, December 9, 2012

  Actual Average (KMKO) Record (KMKO)
Temperature  
Mean Temperature 40 °F -  
Max Temperature 51 °F 50 °F 64 °F (1996)
Min Temperature 30 °F 31 °F 0 °F (2005)
Degree Days  
Heating Degree Days 24    
Moisture  
Dew Point 41 °F    
Average Humidity 83    
Maximum Humidity 100    
Minimum Humidity 60    
Precipitation  
Precipitation 0.06 in - - ()
Sea Level Pressure  
Sea Level Pressure 29.88 in    
Wind  
Wind Speed 6 mph (NNW)    
Max Wind Speed 21 mph    
Max Gust Speed 26 mph    
Visibility 7 miles    
Events      
Averages and records for this station are not official NWS values.
T = Trace of Precipitation, MM = Missing Value Source: NWS Daily Summary

Daily Weather History Graph

Daily Weather History Graph

Search for Another Location

Airport:

Trip Planner

Search our weather history database for the weather conditions in past years. The results will help you decide how hot, cold, wet, or windy it might be!

Date:

Astronomy

Dec. 09, 2012 Rise Set
Actual Time 7:19 AM CST 5:06 PM CST
Civil Twilight 6:50 AM CST 5:34 PM CST
Nautical Twilight 6:18 AM CST 6:06 PM CST
Astronomical Twilight 5:47 AM CST 6:37 PM CST
Moon 2:58 AM CST (12/9) 2:08 PM CST (12/9)
Length of Visible Light 10h 43m
Length of Day
9h 46m
Waning Crescent, 18% of the Moon is Illuminated
Dec 9
Waning Crescent
Dec 13
New
Dec 19
First Quarter
Dec 28
Full
Jan 4
Last Quarter

Hourly Weather History & Observations

Time (CST) Temp. Windchill Dew Point Humidity Pressure Visibility Wind Dir Wind Speed Gust Speed Precip Events Conditions
12:15 AM 46.4 °F - 46.4 °F 100% 29.81 in 5.0 mi Calm Calm - N/A   Clear
12:35 AM 44.6 °F - 42.8 °F 93% 29.80 in 4.0 mi Calm Calm - N/A   Clear
12:55 AM 44.6 °F - 44.6 °F 100% 29.80 in 4.0 mi Calm Calm - N/A   Mostly Cloudy
1:15 AM 44.6 °F - 44.6 °F 100% 29.80 in 5.0 mi Calm Calm - N/A   Overcast
1:35 AM 46.4 °F - 46.4 °F 100% 29.79 in 4.0 mi Calm Calm - N/A   Overcast
1:55 AM 46.4 °F - 44.6 °F 93% 29.78 in 5.0 mi Calm Calm - N/A   Mostly Cloudy
2:15 AM 46.4 °F - 46.4 °F 100% 29.78 in 5.0 mi Calm Calm - N/A   Mostly Cloudy
2:55 AM 50.0 °F - 50.0 °F 100% 29.77 in 5.0 mi Calm Calm - N/A   Overcast
3:15 AM 51.8 °F - 50.0 °F 94% 29.77 in 5.0 mi Calm Calm - N/A   Overcast
3:35 AM 51.8 °F - 50.0 °F 94% 29.76 in 5.0 mi Calm Calm - N/A   Overcast
3:55 AM 51.8 °F - 50.0 °F 94% 29.75 in 5.0 mi Calm Calm - N/A   Overcast
4:15 AM 51.8 °F - 50.0 °F 94% 29.74 in 7.0 mi Calm Calm - N/A   Overcast
4:35 AM 51.8 °F - 50.0 °F 94% 29.75 in 2.0 mi NNE 5.8 mph - 0.06 in   Overcast
4:55 AM 51.8 °F - 50.0 °F 94% 29.75 in 5.0 mi ENE 4.6 mph - 0.06 in   Mostly Cloudy
5:15 AM 51.8 °F - 51.8 °F 100% 29.75 in 4.0 mi Calm Calm - N/A   Overcast
5:35 AM 51.8 °F - 51.8 °F 100% 29.75 in 4.0 mi Calm Calm - N/A   Mostly Cloudy
5:55 AM 51.8 °F - 51.8 °F 100% 29.76 in 4.0 mi Calm Calm - N/A   Mostly Cloudy
6:15 AM 51.8 °F - 51.8 °F 100% 29.77 in 4.0 mi NNW 4.6 mph - N/A   Mostly Cloudy
6:35 AM 51.8 °F - 50.0 °F 94% 29.78 in 3.0 mi Calm Calm - N/A   Overcast
6:55 AM 51.8 °F - 51.8 °F 100% 29.79 in 4.0 mi NW 5.8 mph - N/A   Mostly Cloudy
7:15 AM 51.8 °F - 51.8 °F 100% 29.79 in 4.0 mi Calm Calm - N/A   Overcast
7:35 AM 51.8 °F - 50.0 °F 94% 29.79 in 2.5 mi Calm Calm - N/A   Mostly Cloudy
7:55 AM 51.8 °F - 51.8 °F 100% 29.79 in 2.5 mi Calm Calm - N/A   Overcast
8:15 AM 51.8 °F - 50.0 °F 94% 29.80 in 3.0 mi Calm Calm - N/A   Overcast
8:35 AM 51.8 °F - 50.0 °F 94% 29.81 in 3.0 mi Calm Calm - N/A   Overcast
8:55 AM 51.8 °F - 50.0 °F 94% 29.82 in 3.0 mi NNW 6.9 mph - N/A   Overcast
9:15 AM 51.8 °F - 50.0 °F 94% 29.82 in 3.0 mi North 8.1 mph - N/A   Overcast
9:35 AM 51.8 °F - 50.0 °F 94% 29.84 in 4.0 mi NW 6.9 mph - N/A   Overcast
9:55 AM 51.8 °F - 48.2 °F 88% 29.84 in 4.0 mi NNW 8.1 mph - N/A   Overcast
10:15 AM 50.0 °F - 46.4 °F 87% 29.84 in 4.0 mi North 15.0 mph 20.7 mph N/A   Mostly Cloudy
10:35 AM 51.8 °F - 46.4 °F 82% 29.84 in 5.0 mi North 13.8 mph 20.7 mph N/A   Mostly Cloudy
10:55 AM 50.0 °F - 46.4 °F 87% 29.85 in 5.0 mi North 15.0 mph 21.9 mph N/A   Overcast
11:15 AM 50.0 °F - 44.6 °F 82% 29.85 in 5.0 mi North 17.3 mph 23.0 mph N/A   Haze
11:35 AM 50.0 °F - 44.6 °F 82% 29.86 in 5.0 mi North 18.4 mph - N/A   Haze
11:55 AM 50.0 °F - 44.6 °F 82% 29.86 in 7.0 mi North 12.7 mph 19.6 mph N/A   Overcast
12:15 PM 50.0 °F - 44.6 °F 82% 29.86 in 7.0 mi NNW 11.5 mph 17.3 mph N/A   Overcast
12:35 PM 48.2 °F - 44.6 °F 87% 29.86 in 7.0 mi North 9.2 mph - N/A   Overcast
12:55 PM 50.0 °F - 42.8 °F 76% 29.86 in 7.0 mi NNW 10.4 mph - N/A   Overcast
1:15 PM 48.2 °F - 42.8 °F 82% 29.86 in 7.0 mi NNW 12.7 mph - N/A   Overcast
1:35 PM 46.4 °F 40.4 °F 42.8 °F 87% 29.87 in 7.0 mi NNW 13.8 mph 17.3 mph N/A   Overcast
1:55 PM 46.4 °F 42.9 °F 42.8 °F 87% 29.87 in 7.0 mi NNW 6.9 mph 18.4 mph N/A   Overcast
2:15 PM 46.4 °F 41.1 °F 42.8 °F 87% 29.89 in 7.0 mi North 11.5 mph 18.4 mph N/A   Overcast
2:35 PM 46.4 °F 42.4 °F 42.8 °F 87% 29.90 in 10.0 mi North 8.1 mph - N/A   Overcast
2:55 PM 46.4 °F 41.1 °F 41.0 °F 81% 29.90 in 10.0 mi North 11.5 mph - N/A   Overcast
3:15 PM 46.4 °F 40.7 °F 41.0 °F 81% 29.90 in 10.0 mi North 12.7 mph - N/A   Overcast
3:35 PM 46.4 °F 41.1 °F 41.0 °F 81% 29.91 in 10.0 mi North 11.5 mph 17.3 mph N/A   Overcast
3:55 PM 46.4 °F 41.1 °F 41.0 °F 81% 29.91 in 10.0 mi NNW 11.5 mph - N/A   Overcast
4:15 PM 46.4 °F 41.5 °F 39.2 °F 76% 29.92 in 10.0 mi North 10.4 mph - N/A   Overcast
4:35 PM 46.4 °F 41.5 °F 39.2 °F 76% 29.93 in 10.0 mi NNW 10.4 mph - N/A   Overcast
4:55 PM 46.4 °F 41.5 °F 39.2 °F 76% 29.94 in 10.0 mi NNW 10.4 mph 16.1 mph N/A   Mostly Cloudy
5:15 PM 46.4 °F 40.7 °F 37.4 °F 71% 29.95 in 10.0 mi NNW 12.7 mph 17.3 mph N/A   Overcast
5:35 PM 44.6 °F 37.8 °F 37.4 °F 76% 29.96 in 10.0 mi NNW 15.0 mph 18.4 mph N/A   Mostly Cloudy
5:55 PM 44.6 °F 38.8 °F 35.6 °F 71% 29.96 in 10.0 mi NNW 11.5 mph 18.4 mph N/A   Overcast
6:15 PM 44.6 °F 38.1 °F 33.8 °F 66% 29.96 in 10.0 mi North 13.8 mph 20.7 mph N/A   Overcast
6:35 PM 42.8 °F 34.0 °F 32.0 °F 66% 29.97 in 10.0 mi NNW 20.7 mph 26.5 mph N/A   Overcast
6:55 PM 42.8 °F 34.8 °F 32.0 °F 66% 29.98 in 10.0 mi NNW 17.3 mph 21.9 mph N/A   Overcast
7:15 PM 41.0 °F 32.5 °F 28.4 °F 61% 29.99 in 10.0 mi NNW 17.3 mph 24.2 mph N/A   Overcast
7:35 PM 39.2 °F 29.8 °F 26.6 °F 61% 30.00 in 10.0 mi NNW 18.4 mph 26.5 mph N/A   Overcast
7:55 PM 39.2 °F 30.8 °F 26.6 °F 61% 30.00 in 10.0 mi NNW 15.0 mph 23.0 mph N/A   Overcast
8:15 PM 37.4 °F 30.3 °F 24.8 °F 60% 30.01 in 10.0 mi NNW 10.4 mph 19.6 mph N/A   Overcast
8:35 PM 35.6 °F 25.9 °F 23.0 °F 60% 30.02 in 10.0 mi NNW 16.1 mph 20.7 mph N/A   Overcast
8:55 PM 33.8 °F 23.5 °F 23.0 °F 65% 30.02 in 10.0 mi NNW 16.1 mph 20.7 mph N/A   Scattered Clouds
9:15 PM 33.8 °F 22.8 °F 21.2 °F 60% 30.04 in 10.0 mi NNW 18.4 mph 21.9 mph N/A   Clear
9:35 PM 32.0 °F 21.6 °F 23.0 °F 69% 30.04 in 10.0 mi NNW 15.0 mph 19.6 mph N/A   Clear
9:55 PM 32.0 °F 20.8 °F 21.2 °F 64% 30.06 in 10.0 mi NNW 17.3 mph 21.9 mph N/A   Clear
10:35 PM 32.0 °F 20.8 °F 19.4 °F 60% 30.07 in 10.0 mi NNW 17.3 mph 25.3 mph N/A   Clear
10:55 PM 32.0 °F 21.2 °F 19.4 °F 60% 30.07 in 10.0 mi NNW 16.1 mph 24.2 mph N/A   Clear
11:15 PM 30.2 °F 19.8 °F 19.4 °F 64% 30.09 in 10.0 mi NNW 13.8 mph - N/A   Clear
11:35 PM 30.2 °F 19.3 °F 17.6 °F 60% 30.09 in 10.0 mi NNW 15.0 mph 23.0 mph N/A   Clear
11:55 PM 30.2 °F 19.8 °F 17.6 °F 60% 30.09 in 10.0 mi NNW 13.8 mph 17.3 mph N/A   Clear